Zurück zum Katalog

STARLINK-4510

AktivKommunikationVLEO
NORAD 53405·PAYLOAD·🇺🇸 United States

Gestartet Aug 10, 2022 von Cape Canaveral Space Force Station

Loading…

Nächste Überflüge (nächste 24 Stunden)

TLE

AktuellSource: CelesTrak SupGP

Epoche: Sep 15, 2026, 01:31 UTC

1 53405C 22097T   26258.06368056  .00036241  00000+0  10369-2 0  2588
2 53405  53.1589 346.8151 0001153  87.3806 159.0339 15.35380163    16

Verfolge STARLINK-4510 in Echtzeit mit AllMySat

Download on the App Store